Gainesville, FL

3:37 PM EST on December 12, 2017 (GMT -0500)
Gainesville Regional

Weather History for KGNV - November, 2013

Change the Weather History Date:

Saturday, November 16, 2013

  Actual Average Record
Temperature  
Mean Temperature 70 °F 63 °F  
Max Temperature 80 °F 74 °F 88 °F (1929)
Min Temperature 59 °F 51 °F 24 °F (1940)
Degree Days  
Heating Degree Days 0 4  
Month to date heating degree days 16 53  
Since 1 July heating degree days 31 80  
Cooling Degree Days 5 2  
Month to date cooling degree days 56 45  
Year to date cooling degree days 2797 2595  
Growing Degree Days 22 (Base 50)    
Moisture  
Dew Point 63 °F    
Average Humidity 77    
Maximum Humidity 87    
Minimum Humidity 67    
Precipitation  
Precipitation T in 0.07 in 2.33 in (1926)
Month to date precipitation 1.39 1.12  
Year to date precipitation 41.37 43.99  
Snow  
Snow 0.00 in 0.00 in 0.00 in ()
Month to date snowfall 0.0 0.0  
Since 1 July snowfall 0.0 0.0  
Since 1 September snowfall 0.0 0.0  
Snow Depth 0.00 in    
Sea Level Pressure  
Sea Level Pressure 30.12 in    
Wind  
Wind Speed 5 mph (ENE)    
Max Wind Speed 22 mph    
Max Gust Speed 28 mph    
Visibility 6 miles    
Events Rain    
T = Trace of Precipitation, MM = Missing Value Source: NWS Daily Summary

Daily Weather History Graph

Daily Weather History Graph

Search for Another Location

Airport or City:

Trip Planner

Search our weather history database for the weather conditions in past years. The results will help you decide how hot, cold, wet, or windy it might be!

Date:

Astronomy

Nov. 16, 2013 Rise Set
Actual Time 6:54 AM EST 5:32 PM EST
Civil Twilight 6:29 AM EST 5:58 PM EST
Nautical Twilight 6:00 AM EST 6:27 PM EST
Astronomical Twilight 5:32 AM EST 6:55 PM EST
Moon 5:04 PM EST (11/16) 5:53 AM EST (11/16)
Length of Visible Light 11h 28m
Length of Day
10h 38m
Waxing Gibbous, 99% of the Moon is Illuminated
Nov 16
Waxing Gibbous
Nov 17
Full
Nov 25
Last Quarter
Dec 2
New
Dec 9
First Quarter

Hourly Weather History & Observations

Time (EST) Temp. Heat Index Dew Point Humidity Pressure Visibility Wind Dir Wind Speed Gust Speed Precip Events Conditions
12:01 AM 66.2 °F - 60.8 °F 83% 30.12 in 0.8 mi Calm Calm - N/A   Haze
12:42 AM 66.2 °F - 60.8 °F 83% 30.12 in 1.0 mi Calm Calm - N/A   Haze
12:53 AM 64.9 °F - 59.0 °F 81% 30.12 in 0.8 mi Calm Calm - N/A   Haze
1:07 AM 64.4 °F - 59.0 °F 83% 30.12 in 1.2 mi Calm Calm - N/A   Haze
1:14 AM 64.4 °F - 60.8 °F 88% 30.12 in 2.0 mi Calm Calm - N/A   Haze
1:27 AM 64.4 °F - 60.8 °F 88% 30.11 in 1.5 mi Calm Calm - N/A   Haze
1:49 AM 66.2 °F - 60.8 °F 83% 30.11 in 0.8 mi Calm Calm - N/A   Haze
1:53 AM 66.0 °F - 60.1 °F 81% 30.11 in 0.8 mi Calm Calm - N/A   Haze
2:53 AM 64.9 °F - 60.1 °F 84% 30.10 in 0.8 mi North 3.5 mph - N/A   Haze
3:03 AM 64.4 °F - 59.0 °F 83% 30.11 in 1.0 mi NNE 3.5 mph - N/A   Haze
3:13 AM 64.4 °F - 59.0 °F 83% 30.11 in 0.8 mi North 4.6 mph - N/A   Haze
3:53 AM 64.9 °F - 60.1 °F 84% 30.11 in 0.5 mi NNE 4.6 mph - N/A   Haze
4:53 AM 66.0 °F - 60.1 °F 81% 30.11 in - NNE 3.5 mph - N/A   Unknown
5:02 AM 66.2 °F - 60.8 °F 83% 30.11 in 0.8 mi NNE 3.5 mph - N/A   Haze
5:22 AM 66.2 °F - 60.8 °F 83% 30.12 in 0.8 mi NNE 4.6 mph - N/A   Haze
5:39 AM 66.2 °F - 60.8 °F 83% 30.13 in 1.0 mi NNE 4.6 mph - N/A   Haze
5:53 AM 66.9 °F - 61.0 °F 81% 30.12 in 1.0 mi NNE 5.8 mph - N/A   Haze
6:24 AM 66.2 °F - 60.8 °F 83% 30.13 in 3.0 mi NNE 6.9 mph - N/A   Haze
6:53 AM 66.9 °F - 61.0 °F 81% 30.14 in 6.0 mi NNE 5.8 mph - N/A   Haze
7:53 AM 68.0 °F - 62.1 °F 81% 30.15 in 7.0 mi NE 5.8 mph - N/A   Overcast
8:53 AM 69.1 °F - 63.0 °F 81% 30.16 in 9.0 mi NE 6.9 mph - N/A   Overcast
9:51 AM 73.4 °F - 64.4 °F 73% 30.19 in 10.0 mi NE 10.4 mph - N/A   Overcast
9:53 AM 73.0 °F - 64.0 °F 73% 30.18 in 10.0 mi ENE 10.4 mph - N/A   Overcast
10:53 AM 73.0 °F - 64.9 °F 76% 30.18 in 10.0 mi East 6.9 mph - N/A   Overcast
11:38 AM 75.2 °F - 64.4 °F 69% 30.17 in 10.0 mi ENE 8.1 mph - N/A   Overcast
11:53 AM 75.9 °F - 64.9 °F 69% 30.16 in 10.0 mi East 8.1 mph - N/A   Overcast
12:53 PM 77.0 °F - 66.0 °F 69% 30.13 in 10.0 mi East 4.6 mph - N/A   Overcast
1:29 PM 78.8 °F - 66.2 °F 65% 30.12 in 10.0 mi Variable 3.5 mph - 0.00 in Rain Light Rain
1:53 PM 79.0 °F - 66.0 °F 64% 30.11 in 10.0 mi East 4.6 mph - 0.00 in   Mostly Cloudy
2:07 PM 78.8 °F - 66.2 °F 65% 30.11 in 10.0 mi East 3.5 mph - N/A   Mostly Cloudy
2:53 PM 80.1 °F 82.7 °F 68.0 °F 67% 30.09 in 10.0 mi East 5.8 mph - 0.00 in   Mostly Cloudy
3:53 PM 78.1 °F - 66.0 °F 66% 30.09 in 10.0 mi ENE 9.2 mph - 0.00 in   Scattered Clouds
4:53 PM 75.9 °F - 64.9 °F 69% 30.09 in 10.0 mi ENE 6.9 mph - N/A   Clear
5:53 PM 75.0 °F - 64.0 °F 69% 30.10 in 10.0 mi ENE 4.6 mph - N/A   Overcast
6:53 PM 73.9 °F - 64.9 °F 73% 30.11 in 10.0 mi East 4.6 mph - 0.00 in Rain Light Rain
7:25 PM 73.4 °F - 66.2 °F 78% 30.12 in 10.0 mi East 4.6 mph - 0.00 in Rain Light Rain
7:38 PM 73.4 °F - 66.2 °F 78% 30.12 in 10.0 mi East 6.9 mph - 0.00 in Rain Light Rain
7:53 PM 73.0 °F - 66.0 °F 79% 30.12 in 10.0 mi East 4.6 mph - 0.00 in Rain Light Rain
8:04 PM 73.4 °F - 66.2 °F 78% 30.13 in 10.0 mi East 5.8 mph - 0.00 in Rain Light Rain
8:06 PM 73.4 °F - 66.2 °F 78% 30.13 in 10.0 mi East 5.8 mph - 0.00 in Rain Light Rain
8:53 PM 73.0 °F - 66.0 °F 79% 30.13 in 10.0 mi East 5.8 mph - 0.00 in   Overcast
9:53 PM 73.0 °F - 66.0 °F 79% 30.13 in 10.0 mi ENE 3.5 mph - N/A   Overcast
10:07 PM 73.4 °F - 66.2 °F 78% 30.13 in 10.0 mi Calm Calm - N/A   Overcast
10:53 PM 73.0 °F - 66.0 °F 79% 30.13 in 10.0 mi East 3.5 mph - N/A   Overcast
11:46 PM 71.6 °F - 66.2 °F 83% 30.12 in 10.0 mi Calm Calm - 0.00 in   Overcast
11:53 PM 72.0 °F - 66.0 °F 81% 30.12 in 10.0 mi Calm Calm - 0.00 in   Overcast